Thedford, NE

5:48 AM CDT on July 25, 2017 (GMT -0500)
Thedford

Weather History for KTIF - February, 2012

Change the Weather History Date:

Sunday, February 5, 2012

  Actual Average (KANW) Record (KANW)
Temperature  
Mean Temperature 22 °F -  
Max Temperature 36 °F 36 °F 73 °F (1997)
Min Temperature 7 °F 16 °F -9 °F (2014)
Degree Days  
Heating Degree Days 44    
Moisture  
Dew Point 16 °F    
Average Humidity 84    
Maximum Humidity 91    
Minimum Humidity 69    
Precipitation  
Precipitation 0.00 in - - ()
Sea Level Pressure  
Sea Level Pressure 30.34 in    
Wind  
Wind Speed 3 mph (WSW)    
Max Wind Speed 8 mph    
Max Gust Speed -    
Visibility 10 miles    
Events      
Averages and records for this station are not official NWS values.
T = Trace of Precipitation, MM = Missing Value Source: NWS Daily Summary

Daily Weather History Graph

Daily Weather History Graph

Search for Another Location

Airport or City:

Trip Planner

Search our weather history database for the weather conditions in past years. The results will help you decide how hot, cold, wet, or windy it might be!

Date:

Astronomy

Feb. 05, 2012 Rise Set
Actual Time 7:51 AM CST 6:01 PM CST
Civil Twilight 7:21 AM CST 6:31 PM CST
Nautical Twilight 6:48 AM CST 7:04 PM CST
Astronomical Twilight 6:16 AM CST 7:37 PM CST
Moon 4:01 PM CST (2/5) 6:04 AM CST (2/5)
Length of Visible Light 11h 09m
Length of Day
10h 10m
Waxing Gibbous, 95% of the Moon is Illuminated
Feb 5
Waxing Gibbous
Feb 7
Full
Feb 14
Last Quarter
Feb 21
New
Feb 29
First Quarter

Hourly Weather History & Observations

Time (CST) Temp. Windchill Dew Point Humidity Pressure Visibility Wind Dir Wind Speed Gust Speed Precip Events Conditions
12:15 AM 12.0 °F 5.9 °F 9.7 °F 90% 30.41 in 10.0 mi West 3.5 mph - N/A   Clear
12:35 AM 12.2 °F - 9.7 °F 90% 30.40 in 10.0 mi Calm Calm - N/A   Clear
12:55 AM 13.1 °F 7.1 °F 10.4 °F 89% 30.40 in 10.0 mi West 3.5 mph - N/A   Clear
1:15 AM 12.7 °F 6.7 °F 9.9 °F 88% 30.40 in 10.0 mi West 3.5 mph - N/A   Clear
1:35 AM 10.6 °F - 7.7 °F 88% 30.40 in 10.0 mi Calm Calm - N/A   Clear
1:55 AM 11.5 °F - 8.8 °F 89% 30.39 in 10.0 mi Calm Calm - N/A   Clear
2:15 AM 11.1 °F 4.9 °F 8.4 °F 89% 30.39 in 10.0 mi West 3.5 mph - N/A   Clear
2:35 AM 10.8 °F 4.5 °F 8.2 °F 90% 30.39 in 10.0 mi West 3.5 mph - N/A   Clear
2:55 AM 10.9 °F 2.9 °F 8.4 °F 90% 30.40 in 10.0 mi West 4.6 mph - N/A   Clear
3:15 AM 9.5 °F - 7.2 °F 90% 30.40 in 10.0 mi Calm Calm - N/A   Clear
3:35 AM 7.7 °F 1.0 °F 4.8 °F 88% 30.39 in 10.0 mi WNW 3.5 mph - N/A   Clear
3:55 AM 10.8 °F 4.5 °F 8.4 °F 90% 30.39 in 10.0 mi West 3.5 mph - N/A   Clear
4:15 AM 12.0 °F 2.7 °F 9.3 °F 89% 30.38 in 10.0 mi WSW 5.8 mph - N/A   Clear
4:35 AM 11.8 °F 5.7 °F 9.1 °F 89% 30.39 in 10.0 mi West 3.5 mph - N/A   Clear
4:55 AM 11.3 °F 5.1 °F 8.6 °F 89% 30.38 in 10.0 mi West 3.5 mph - N/A   Clear
5:15 AM 10.8 °F 4.5 °F 7.9 °F 88% 30.38 in 10.0 mi West 3.5 mph - N/A   Clear
5:35 AM 8.4 °F -0.1 °F 5.2 °F 87% 30.38 in 10.0 mi WSW 4.6 mph - N/A   Clear
5:55 AM 9.0 °F - 6.1 °F 88% 30.38 in 10.0 mi Calm Calm - N/A   Clear
6:15 AM 9.0 °F - 6.3 °F 89% 30.37 in 10.0 mi Calm Calm - N/A   Clear
6:35 AM 9.5 °F - 6.8 °F 89% 30.38 in 10.0 mi Calm Calm - N/A   Clear
6:55 AM 9.0 °F - 6.1 °F 88% 30.37 in 10.0 mi Calm Calm - N/A   Clear
7:15 AM 9.3 °F - 6.8 °F 89% 30.37 in 10.0 mi Calm Calm - N/A   Clear
7:35 AM 9.0 °F - 6.1 °F 88% 30.37 in 10.0 mi Calm Calm - N/A   Clear
7:55 AM 9.3 °F - 6.6 °F 89% 30.37 in 10.0 mi Calm Calm - N/A   Clear
8:15 AM 9.3 °F - 6.6 °F 89% 30.37 in 10.0 mi Calm Calm - N/A   Clear
8:35 AM 10.6 °F 4.3 °F 8.1 °F 90% 30.37 in 10.0 mi West 3.5 mph - N/A   Clear
8:55 AM 11.5 °F 5.3 °F 9.1 °F 90% 30.38 in 10.0 mi WSW 3.5 mph - N/A   Clear
9:15 AM 12.2 °F - 9.7 °F 90% 30.38 in 10.0 mi Calm Calm - N/A   Clear
9:35 AM 12.2 °F 6.1 °F 9.5 °F 89% 30.38 in 10.0 mi WNW 3.5 mph - N/A   Clear
9:55 AM 14.9 °F - 12.6 °F 90% 30.38 in 10.0 mi Calm Calm - N/A   Clear
10:15 AM 16.2 °F 10.6 °F 13.6 °F 90% 30.38 in 10.0 mi WNW 3.5 mph - N/A   Clear
10:35 AM 18.3 °F 13.1 °F 16.2 °F 91% 30.38 in 10.0 mi West 3.5 mph - N/A   Clear
10:55 AM 22.1 °F - 19.4 °F 89% 30.38 in 10.0 mi Calm Calm - N/A   Clear
11:15 AM 22.6 °F - 20.1 °F 90% 30.38 in 10.0 mi Calm Calm - N/A   Clear
11:55 AM 26.2 °F - 21.6 °F 82% 30.37 in 10.0 mi Calm Calm - N/A   Clear
12:15 PM 27.5 °F 23.6 °F 22.1 °F 80% 30.36 in 10.0 mi WNW 3.5 mph - N/A   Clear
12:35 PM 28.4 °F 24.6 °F 22.6 °F 79% 30.35 in 10.0 mi West 3.5 mph - N/A   Clear
12:55 PM 30.2 °F - 23.0 °F 75% 30.34 in 10.0 mi Calm Calm - N/A   Clear
1:15 PM 31.6 °F - 24.1 °F 74% 30.34 in 10.0 mi Calm Calm - N/A   Clear
1:35 PM 32.5 °F 29.3 °F 25.0 °F 74% 30.33 in 10.0 mi WSW 3.5 mph - N/A   Clear
1:55 PM 33.3 °F - 25.3 °F 73% 30.33 in 10.0 mi Calm Calm - N/A   Clear
2:15 PM 34.0 °F 31.0 °F 25.7 °F 72% 30.32 in 10.0 mi WSW 3.5 mph - N/A   Clear
2:35 PM 34.9 °F - 25.9 °F 70% 30.32 in 10.0 mi Calm Calm - N/A   Clear
2:55 PM 35.4 °F 31.5 °F 26.1 °F 69% 30.31 in 10.0 mi SW 4.6 mph - N/A   Clear
3:15 PM 35.6 °F 31.7 °F 26.2 °F 69% 30.31 in 10.0 mi SW 4.6 mph - N/A   Clear
3:35 PM 36.0 °F 32.1 °F 26.6 °F 69% 30.30 in 10.0 mi SW 4.6 mph - N/A   Clear
3:55 PM 36.0 °F 31.1 °F 26.6 °F 69% 30.29 in 10.0 mi SW 5.8 mph - N/A   Clear
4:15 PM 36.1 °F 33.5 °F 27.1 °F 70% 30.29 in 10.0 mi SSW 3.5 mph - N/A   Clear
4:35 PM 36.0 °F 31.1 °F 27.3 °F 71% 30.28 in 10.0 mi SSW 5.8 mph - N/A   Clear
4:55 PM 35.4 °F 30.5 °F 27.3 °F 72% 30.28 in 10.0 mi SSW 5.8 mph - N/A   Clear
5:15 PM 34.3 °F 28.4 °F 26.6 °F 73% 30.27 in 10.0 mi SSW 6.9 mph - N/A   Clear
5:35 PM 33.6 °F 28.4 °F 26.4 °F 75% 30.27 in 10.0 mi SSW 5.8 mph - N/A   Clear
5:55 PM 32.0 °F 24.8 °F 25.9 °F 78% 30.27 in 10.0 mi SSW 8.1 mph - N/A   Clear
6:15 PM 31.1 °F 24.5 °F 25.3 °F 79% 30.27 in 10.0 mi SSW 6.9 mph - N/A   Clear
6:35 PM 30.4 °F 22.9 °F 25.2 °F 81% 30.27 in 10.0 mi SSW 8.1 mph - N/A   Clear
6:55 PM 29.8 °F 22.2 °F 25.0 °F 82% 30.27 in 10.0 mi SSW 8.1 mph - N/A   Clear
7:15 PM 30.2 °F 22.6 °F 25.3 °F 82% 30.26 in 10.0 mi SW 8.1 mph - N/A   Clear
7:35 PM 29.3 °F 21.5 °F 24.8 °F 83% 30.26 in 10.0 mi SW 8.1 mph - N/A   Clear
7:55 PM 28.8 °F 20.9 °F 24.1 °F 83% 30.26 in 10.0 mi SW 8.1 mph - N/A   Clear
8:15 PM 27.7 °F 20.4 °F 23.5 °F 84% 30.26 in 10.0 mi SW 6.9 mph - N/A   Clear
8:35 PM 26.4 °F - 22.5 °F 85% 30.25 in 10.0 mi Calm Calm - N/A   Clear
8:55 PM 23.7 °F 19.3 °F 21.2 °F 90% 30.25 in 10.0 mi WSW 3.5 mph - N/A   Clear
9:15 PM 21.9 °F - 19.8 °F 91% 30.25 in 10.0 mi Calm Calm - N/A   Clear
9:35 PM 22.5 °F 16.3 °F 19.9 °F 90% 30.25 in 10.0 mi WSW 4.6 mph - N/A   Clear
9:55 PM 22.6 °F - 20.7 °F 92% 30.24 in 10.0 mi Calm Calm - N/A   Clear
10:15 PM 23.9 °F 19.5 °F 21.2 °F 89% 30.24 in 10.0 mi West 3.5 mph - N/A   Clear
10:35 PM 23.0 °F - 19.6 °F 87% 30.23 in 10.0 mi Calm Calm - N/A   Clear
10:55 PM 23.4 °F 18.9 °F 19.6 °F 85% 30.23 in 10.0 mi West 3.5 mph - N/A   Clear
11:15 PM 23.0 °F - 19.6 °F 87% 30.23 in 10.0 mi Calm Calm - N/A   Clear
11:35 PM 22.5 °F - 19.2 °F 87% 30.23 in 10.0 mi Calm Calm - N/A   Clear
11:55 PM 20.1 °F - 16.9 °F 87% 30.23 in 10.0 mi Calm Calm - N/A   Clear